Location: Appeville
(49.3218°N, 1.3427°W)
Time: 17:20:32
(UTC+00:00)

Cosmos 1484 Rocket - Pass Details

Date: 08 December 2019
Orbit: 505 x 561 km, 97.4° (Epoch: 26 January)

Event Time Altitude Azimuth Distance (km) Brightness Sun altitude
Rises 05:24:42 0° 11° (N) 2,752 6.4 -22.2°
Reaches altitude 10° 05:26:51 10° 10° (N) 1,846 5.5 -21.8°
Maximum altitude 05:30:50 74° 285° (WNW) 576 2.6 -21.2°
Drops below altitude 10° 05:34:44 10° 201° (SSW) 1,802 5.3 -20.5°
Sets 05:36:49 0° 199° (SSW) 2,679 6.3 -20.2°
